| time (UTC) | temp C | wind direction | speed KPH | gust KPH | rain 1hr cm | rain 24hr cm | rain mn cm | humidity % | barometer mb |
| 20260906110941 | 17 | 277 | 16.1 | 25.7 | 0.03 | 0.03 | 0.03 | 86 | 1015.8 |
| 20260906110444 | 17 | 272 | 16.1 | 25.7 | 0.03 | 0.03 | 0.03 | 85 | 1015.7 |
| 20260906105947 | 17 | 268 | 17.7 | 24.1 | 0.03 | 0.03 | 0.03 | 84 | 1015.8 |
| 20260906105450 | 17 | 267 | 16.1 | 24.1 | 0.03 | 0.03 | 0.03 | 84 | 1015.8 |
| 20260906104953 | 17 | 267 | 16.1 | 24.1 | 0.00 | 0.00 | 0.00 | 83 | 1015.8 |
| 20260906104456 | 17 | 263 | 16.1 | 19.3 | 0.00 | 0.00 | 0.00 | 83 | 1015.8 |
| 20260906103959 | 17 | 263 | 14.5 | 20.9 | 0.00 | 0.00 | 0.00 | 83 | 1015.8 |
| 20260906103502 | 17 | 260 | 12.9 | 20.9 | 0.00 | 0.00 | 0.00 | 82 | 1015.9 |
| 20260906102510 | 18 | 252 | 12.9 | 20.9 | 0.00 | 0.00 | 0.00 | ||
| 20260906102011 | 18 | 254 | 14.5 | 20.9 | 0.00 | 0.00 | 0.00 | 76 | 1015.9 |
| 20260906101515 | 18 | 267 | 12.9 | 20.9 | 0.00 | 0.00 | 0.00 | 75 | 1015.8 |
| 20260906101017 | 18 | 266 | 16.1 | 20.9 | 0.00 | 0.00 | 0.00 | 75 | 1015.8 |
| 20260906100520 | 18 | 260 | 14.5 | 20.9 | 0.00 | 0.00 | 0.00 | 76 | 1016.0 |
| 20260906100023 | 18 | 270 | 12.9 | 20.9 | 0.00 | 0.00 | 0.00 | 76 | 1015.9 |
| 20260906095526 | 18 | 267 | 9.7 | 20.9 | 0.00 | 0.00 | 0.00 | 74 | 1015.9 |
| 20260906094532 | 19 | 260 | 16.1 | 24.1 | 0.00 | 0.00 | 0.00 | 70 | 1015.9 |
| 20260906094035 | 19 | 258 | 11.3 | 22.5 | 0.00 | 0.00 | 0.00 | 69 | 1015.1 |
| 20260906093538 | 19 | 263 | 12.9 | 22.5 | 0.00 | 0.00 | 0.00 | 69 | 1015.1 |
| 20260906093041 | 20 | 259 | 14.5 | 22.5 | 0.00 | 0.00 | 0.00 | 69 | 1015.2 |
| 20260906092544 | 20 | 256 | 16.1 | 25.7 | 0.00 | 0.00 | 0.00 | 69 | 1015.1 |
| 20260906092047 | 20 | 258 | 16.1 | 25.7 | 0.00 | 0.00 | 0.00 | 69 | 1015.2 |
| 20260906091053 | 20 | 256 | 17.7 | 25.7 | 0.00 | 0.00 | 0.00 | 68 | 1015.3 |
| 20260906090556 | 20 | 258 | 14.5 | 24.1 | 0.00 | 0.00 | 0.00 | 68 | 1015.3 |
| 20260906090059 | 20 | 268 | 14.5 | 24.1 | 0.00 | 0.00 | 0.00 | 67 | 1015.4 |
| 20260906085637 | 20 | 271 | 11.3 | 22.5 | 0.00 | 0.00 | 0.00 | 66 | 1015.4 |
| 20260906085602 | 20 | 271 | 11.3 | 22.5 | 0.00 | 0.00 | 0.00 | 66 | 1015.4 |
| 20260906084608 | 20 | 257 | 14.5 | 25.7 | 0.00 | 0.00 | 0.00 | 65 | 1015.6 |
| 20260906083614 | 20 | 258 | 11.3 | 25.7 | 0.00 | 0.00 | 0.00 | 64 | 1015.6 |
| 20260906083117 | 20 | 256 | 17.7 | 25.7 | 0.00 | 0.00 | 0.00 | 64 | 1015.7 |
| 20260906082620 | 20 | 258 | 12.9 | 22.5 | 0.00 | 0.00 | 0.00 | 64 | 1015.7 |
| 20260906082123 | 20 | 270 | 12.9 | 22.5 | 0.00 | 0.00 | 0.00 | 65 | 1015.6 |
| 20260906081626 | 20 | 261 | 12.9 | 20.9 | 0.00 | 0.00 | 0.00 | 65 | 1015.6 |
| 20260906081129 | 20 | 265 | 12.9 | 22.5 | 0.00 | 0.00 | 0.00 | 65 | 1015.6 |
| 20260906080632 | 20 | 253 | 16.1 | 22.5 | 0.00 | 0.00 | 0.00 | 65 | 1015.9 |
| 20260906080135 | 20 | 261 | 14.5 | 20.9 | 0.00 | 0.00 | 0.00 | 65 | 1015.9 |
| 20260906075638 | 20 | 269 | 11.3 | 17.7 | 0.00 | 0.00 | 0.00 | 66 | 1016.0 |
| 20260906075141 | 20 | 260 | 12.9 | 17.7 | 0.00 | 0.00 | 0.00 | 66 | 1016.0 |
| 20260906073153 | 20 | 257 | 12.9 | 20.9 | 0.00 | 0.00 | 0.00 | 65 | 1016.2 |
| 20260906072159 | 20 | 245 | 14.5 | 19.3 | 0.00 | 0.00 | 0.00 | 65 | 1016.3 |
| 20260906071702 | 20 | 248 | 12.9 | 17.7 | 0.00 | 0.00 | 0.00 | 65 | 1016.4 |
| 20260906070708 | 20 | 253 | 12.9 | 17.7 | 0.00 | 0.00 | 0.00 | 66 | 1016.3 |
| 20260906070211 | 20 | 257 | 11.3 | 19.3 | 0.00 | 0.00 | 0.00 | 66 | 1016.4 |
| 20260906065714 | 20 | 246 | 11.3 | 19.3 | 0.00 | 0.00 | 0.00 | 66 | 1016.4 |
| 20260906065217 | 20 | 248 | 9.7 | 17.7 | 0.00 | 0.00 | 0.00 | 66 | 1016.3 |
| 20260906064720 | 20 | 246 | 11.3 | 17.7 | 0.00 | 0.00 | 0.00 | 66 | 1016.4 |
| 20260906064223 | 20 | 245 | 11.3 | 16.1 | 0.00 | 0.00 | 0.00 | 66 | 1016.4 |
| 20260906063726 | 20 | 249 | 11.3 | 16.1 | 0.00 | 0.00 | 0.00 | 66 | 1016.3 |
| 20260906063229 | 20 | 244 | 9.7 | 16.1 | 0.00 | 0.00 | 0.00 | 66 | 1016.3 |
| 20260906062732 | 20 | 251 | 11.3 | 17.7 | 0.00 | 0.00 | 0.00 | 66 | 1016.2 |
| 20260906062235 | 20 | 247 | 11.3 | 17.7 | 0.00 | 0.00 | 0.00 | 66 | 1016.1 |
| 20260906061241 | 20 | 241 | 11.3 | 17.7 | 0.00 | 0.00 | 0.00 | 65 | 1016.2 |
| 20260906060744 | 20 | 249 | 11.3 | 17.7 | 0.00 | 0.00 | 0.00 | 65 | 1016.2 |
| 20260906060321 | 20 | 243 | 12.9 | 17.7 | 0.00 | 0.00 | 0.00 | 65 | 1016.3 |
| 20260906060247 | 20 | 243 | 12.9 | 17.7 | 0.00 | 0.00 | 0.00 | 65 | 1016.3 |
| 20260906055750 | 20 | 247 | 12.9 | 17.7 | 0.00 | 0.00 | 0.00 | 65 | 1016.4 |
| 20260906055253 | 20 | 245 | 11.3 | 17.7 | 0.00 | 0.00 | 0.00 | 65 | 1016.5 |
| 20260906054756 | 20 | 249 | 9.7 | 17.7 | 0.00 | 0.00 | 0.00 | 64 | 1016.4 |
| 20260906054259 | 20 | 257 | 9.7 | 16.1 | 0.00 | 0.00 | 0.00 | 65 | 1016.6 |
| 20260906053802 | 20 | 263 | 8.0 | 16.1 | 0.00 | 0.00 | 0.00 | 64 | 1016.5 |
| 20260906053305 | 20 | 264 | 9.7 | 16.1 | 0.00 | 0.00 | 0.00 | 64 | 1016.5 |
| 20260906052808 | 20 | 250 | 11.3 | 16.1 | 0.00 | 0.00 | 0.00 | 65 | 1016.5 |
| 20260906052311 | 20 | 256 | 11.3 | 17.7 | 0.00 | 0.00 | 0.00 | 64 | 1016.5 |
| 20260906051317 | 20 | 261 | 12.9 | 19.3 | 0.00 | 0.00 | 0.00 | 64 | 1016.5 |
| 20260906050820 | 20 | 258 | 11.3 | 19.3 | 0.00 | 0.00 | 0.00 | 64 | 1016.6 |
| 20260906050323 | 20 | 260 | 12.9 | 19.3 | 0.00 | 0.00 | 0.00 | 64 | 1016.6 |
| 20260906045329 | 20 | 262 | 11.3 | 19.3 | 0.00 | 0.00 | 0.00 | 64 | 1016.5 |
| 20260906044832 | 20 | 260 | 12.9 | 19.3 | 0.00 | 0.00 | 0.00 | 64 | 1016.6 |
| 20260906043838 | 20 | 267 | 9.7 | 17.7 | 0.00 | 0.00 | 0.00 | 65 | 1016.6 |
| 20260906043341 | 20 | 260 | 11.3 | 17.7 | 0.00 | 0.00 | 0.00 | 65 | 1016.7 |
| 20260906042347 | 20 | 257 | 11.3 | 19.3 | 0.00 | 0.00 | 0.00 | 65 | 1016.7 |
| 20260906041850 | 20 | 258 | 9.7 | 17.7 | 0.00 | 0.00 | 0.00 | 63 | 1016.7 |
| 20260906041353 | 20 | 263 | 9.7 | 17.7 | 0.00 | 0.00 | 0.00 | 63 | 1016.6 |
| 20260906040856 | 20 | 265 | 12.9 | 20.9 | 0.00 | 0.00 | 0.00 | 63 | 1016.6 |
| 20260906040359 | 20 | 259 | 11.3 | 20.9 | 0.00 | 0.00 | 0.00 | 63 | 1016.6 |
| 20260906035902 | 20 | 257 | 12.9 | 19.3 | 0.00 | 0.00 | 0.00 | 62 | 1016.5 |
| 20260906035405 | 20 | 264 | 11.3 | 22.5 | 0.00 | 0.00 | 0.00 | 61 | 1016.4 |
| 20260906034908 | 20 | 284 | 12.9 | 22.5 | 0.00 | 0.00 | 0.00 | 60 | 1016.3 |
| 20260906034411 | 20 | 262 | 11.3 | 20.9 | 0.00 | 0.00 | 0.00 | 61 | 1016.4 |
| 20260906033914 | 20 | 262 | 11.3 | 22.5 | 0.00 | 0.00 | 0.00 | 60 | 1016.3 |
| 20260906033417 | 20 | 277 | 12.9 | 22.5 | 0.00 | 0.00 | 0.00 | 60 | 1016.1 |
| 20260906032920 | 20 | 268 | 11.3 | 19.3 | 0.00 | 0.00 | 0.00 | 59 | 1016.1 |
| 20260906032423 | 20 | 266 | 12.9 | 19.3 | 0.00 | 0.00 | 0.00 | 59 | 1016.1 |
| 20260906031926 | 20 | 278 | 9.7 | 19.3 | 0.00 | 0.00 | 0.00 | 59 | 1016.2 |
| 20260906031429 | 21 | 280 | 11.3 | 19.3 | 0.00 | 0.00 | 0.00 | 59 | 1016.0 |
| 20260906030932 | 21 | 273 | 12.9 | 19.3 | 0.00 | 0.00 | 0.00 | 59 | 1016.0 |
| 20260906030435 | 21 | 261 | 14.5 | 19.3 | 0.00 | 0.00 | 0.00 | 59 | 1016.0 |
| 20260906025442 | 21 | 269 | 14.5 | 25.7 | 0.00 | 0.00 | 0.00 | 58 | 1015.7 |
| 20260906024944 | 21 | 267 | 11.3 | 20.9 | 0.00 | 0.00 | 0.00 | 58 | 1015.8 |
| 20260906024447 | 21 | 266 | 14.5 | 22.5 | 0.00 | 0.00 | 0.00 | 57 | 1015.8 |
| 20260906023950 | 21 | 280 | 16.1 | 22.5 | 0.00 | 0.00 | 0.00 | 57 | 1015.8 |
| 20260906022956 | 21 | 274 | 11.3 | 22.5 | 0.00 | 0.00 | 0.00 | 56 | 1015.8 |
| 20260906022459 | 21 | 280 | 12.9 | 22.5 | 0.00 | 0.00 | 0.00 | 56 | 1015.8 |
| 20260906022002 | 22 | 285 | 14.5 | 22.5 | 0.00 | 0.00 | 0.00 | 55 | 1015.8 |
| 20260906015517 | 22 | 258 | 14.5 | 32.2 | 0.00 | 0.00 | 0.00 | 54 | 1015.9 |
| 20260906014026 | 23 | 277 | 14.5 | 27.4 | 0.00 | 0.00 | 0.00 | 51 | 1015.9 |
| 20260906013529 | 24 | 283 | 14.5 | 24.1 | 0.00 | 0.00 | 0.00 | 50 | 1016.0 |
| 20260906012535 | 24 | 259 | 11.3 | 22.5 | 0.00 | 0.00 | 0.00 | 50 | 1016.2 |
| 20260906012038 | 24 | 242 | 16.1 | 22.5 | 0.00 | 0.00 | 0.00 | 50 | 1016.3 |
| 20260906011044 | 25 | 269 | 9.7 | 30.6 | 0.00 | 0.00 | 0.00 | 49 | 1016.2 |
| 20260906005553 | 25 | 289 | 17.7 | 27.4 | 0.00 | 0.00 | 0.00 | 48 | 1016.1 |
| 20260906005130 | 20 | 276 | 14.5 | 25.7 | 0.00 | 0.00 | 0.00 | 47 | 1016.0 |
| 20260906005056 | -17 | 276 | 14.5 | 25.7 | 0.00 | 0.00 | 0.00 | 47 | 1016.0 |
| 20260906004559 | 26 | 261 | 11.3 | 25.7 | 0.00 | 0.00 | 0.00 | 47 | 1016.1 |
| 20260906004102 | 26 | 263 | 14.5 | 27.4 | 0.00 | 0.00 | 0.00 | 47 | 1016.1 |
| 20260906003605 | 26 | 267 | 17.7 | 27.4 | 0.00 | 0.00 | 0.00 | 48 | 1016.1 |
| 20260906003108 | 26 | 259 | 11.3 | 20.9 | 0.00 | 0.00 | 0.00 | 48 | 1016.2 |
| 20260906002114 | 25 | 264 | 14.5 | 27.4 | 0.00 | 0.00 | 0.00 | 48 | 1016.2 |
| 20260906001617 | 26 | 267 | 16.1 | 33.8 | 0.00 | 0.00 | 0.00 | 47 | 1016.1 |
| 20260906001120 | 26 | 267 | 20.9 | 33.8 | 0.00 | 0.00 | 0.00 | 46 | 1016.3 |
| 20260906000126 | 26 | 258 | 14.5 | 29.0 | 0.00 | 0.00 | 0.00 | 46 | 1016.2 |
| 20260905235629 | 26 | 259 | 11.3 | 27.4 | 0.00 | 0.00 | 0.00 | 46 | 1016.2 |
| 20260905235132 | 26 | 248 | 16.1 | 27.4 | 0.00 | 0.00 | 0.00 | 44 | 1016.2 |
| 20260905234712 | 26 | 277 | 14.5 | 29.0 | 0.00 | 0.00 | 0.00 | 43 | 1016.2 |
| 20260905234635 | 26 | 277 | 14.5 | 29.0 | 0.00 | 0.00 | 0.00 | 43 | 1016.2 |
| 20260905233641 | 27 | 255 | 16.1 | 32.2 | 0.00 | 0.00 | 0.00 | 42 | 1016.5 |
| 20260905233144 | 27 | 215 | 17.7 | 29.0 | 0.00 | 0.00 | 0.00 | 41 | 1016.4 |
| 20260905232647 | 27 | 277 | 14.5 | 30.6 | 0.00 | 0.00 | 0.00 | 40 | 1016.4 |
| 20260905231653 | 27 | 230 | 16.1 | 35.4 | 0.00 | 0.00 | 0.00 | 41 | 1016.3 |
| 20260905230659 | 27 | 247 | 11.3 | 32.2 | 0.00 | 0.00 | 0.00 | 42 | 1016.3 |
| 20260905230202 | 27 | 240 | 11.3 | 33.8 | 0.00 | 0.00 | 0.00 | 43 | 1016.3 |
| 20260905225208 | 27 | 241 | 12.9 | 35.4 | 0.00 | 0.00 | 0.00 | 43 | 1016.4 |
| 20260905224214 | 27 | 238 | 17.7 | 33.8 | 0.00 | 0.00 | 0.00 | 44 | 1016.4 |
| 20260905223717 | 26 | 245 | 14.5 | 33.8 | 0.00 | 0.00 | 0.00 | 46 | 1016.6 |
| 20260905223220 | 26 | 257 | 16.1 | 33.8 | 0.00 | 0.00 | 0.00 | 44 | 1016.5 |
| 20260905222226 | 26 | 261 | 24.1 | 38.6 | 0.00 | 0.00 | 0.00 | 42 | 1016.5 |
| 20260905221729 | 27 | 264 | 20.9 | 32.2 | 0.00 | 0.00 | 0.00 | 43 | 1016.5 |
| 20260905221232 | 27 | 262 | 17.7 | 30.6 | 0.00 | 0.00 | 0.00 | 43 | 1016.5 |
| 20260905220735 | 27 | 219 | 19.3 | 35.4 | 0.00 | 0.00 | 0.00 | 42 | 1016.6 |
| 20260905215741 | 27 | 244 | 17.7 | 33.8 | 0.00 | 0.00 | 0.00 | 43 | 1016.6 |
| 20260905215244 | 27 | 260 | 20.9 | 32.2 | 0.00 | 0.00 | 0.00 | 42 | 1016.7 |
| 20260905214747 | 27 | 234 | 20.9 | 32.2 | 0.00 | 0.00 | 0.00 | 43 | 1016.8 |
| 20260905214250 | 26 | 242 | 17.7 | 33.8 | 0.00 | 0.00 | 0.00 | 44 | 1016.8 |
| 20260905213753 | 25 | 240 | 11.3 | 33.8 | 0.00 | 0.00 | 0.00 | 45 | 1016.9 |
| 20260905213256 | 26 | 247 | 19.3 | 37.0 | 0.00 | 0.00 | 0.00 | 45 | 1017.1 |
| 20260905213205 | 26 | 262 | 24.1 | 38.6 | 0.00 | 0.00 | 0.00 | 42 | 1017.2 |
| 20260905212759 | 26 | 262 | 24.1 | 38.6 | 0.00 | 0.00 | 0.00 | 42 | 1017.2 |
| 20260905212305 | 27 | 233 | 19.3 | 38.6 | 0.00 | 0.00 | 0.00 | 42 | 1017.1 |
| 20260905211805 | 27 | 249 | 11.3 | 33.8 | 0.00 | 0.00 | 0.00 | 43 | 1017.1 |
| 20260905211308 | 27 | 236 | 20.9 | 37.0 | 0.00 | 0.00 | 0.00 | 42 | 1017.3 |
| 20260905210812 | 27 | 247 | 24.1 | 37.0 | 0.00 | 0.00 | 0.00 | 41 | 1017.3 |
| 20260905210314 | 27 | 267 | 22.5 | 35.4 | 0.00 | 0.00 | 0.00 | 41 | 1016.4 |
| 20260905205817 | 27 | 275 | 16.1 | 29.0 | 0.00 | 0.00 | 0.00 | 42 | 1016.4 |
| 20260905205320 | 27 | 265 | 16.1 | 33.8 | 0.00 | 0.00 | 0.00 | 43 | 1016.5 |
| 20260905204823 | 26 | 248 | 16.1 | 38.6 | 0.00 | 0.00 | 0.00 | 43 | 1016.5 |
| 20260905204326 | 26 | 248 | 17.7 | 38.6 | 0.00 | 0.00 | 0.00 | 44 | 1016.7 |
| 20260905203829 | 26 | 270 | 16.1 | 35.4 | 0.00 | 0.00 | 0.00 | 44 | 1016.8 |
| 20260905202835 | 26 | 266 | 20.9 | 41.8 | 0.00 | 0.00 | 0.00 | 43 | 1016.8 |
| 20260905202338 | 26 | 278 | 27.4 | 41.8 | 0.00 | 0.00 | 0.00 | 40 | 1016.8 |
| 20260905201841 | 26 | 234 | 11.3 | 32.2 | 0.00 | 0.00 | 0.00 | 42 | 1016.6 |
| 20260905200847 | 26 | 268 | 20.9 | 32.2 | 0.00 | 0.00 | 0.00 | 42 | 1016.8 |
| 20260905200350 | 26 | 271 | 17.7 | 32.2 | 0.00 | 0.00 | 0.00 | 43 | 1016.8 |
| 20260905195854 | 26 | 280 | 17.7 | 32.2 | 0.00 | 0.00 | 0.00 | 42 | 1016.7 |
| 20260905194859 | 26 | 268 | 19.3 | 35.4 | 0.00 | 0.00 | 0.00 | 40 | 1016.9 |
| 20260905194402 | 26 | 271 | 20.9 | 33.8 | 0.00 | 0.00 | 0.00 | 39 | 1017.0 |
| 20260905193905 | 26 | 277 | 17.7 | 35.4 | 0.00 | 0.00 | 0.00 | 37 | 1017.0 |
| 20260905193408 | 26 | 210 | 24.1 | 35.4 | 0.00 | 0.00 | 0.00 | 36 | 1017.2 |
| 20260905192911 | 26 | 275 | 24.1 | 35.4 | 0.00 | 0.00 | 0.00 | 35 | 1017.4 |
| 20260905191917 | 26 | 217 | 17.7 | 32.2 | 0.00 | 0.00 | 0.00 | 34 | 1017.4 |
| 20260905191421 | 26 | 265 | 19.3 | 30.6 | 0.00 | 0.00 | 0.00 | 36 | 1017.5 |
| 20260905190923 | 26 | 240 | 14.5 | 35.4 | 0.00 | 0.00 | 0.00 | 36 | 1017.6 |
| 20260905190426 | 26 | 235 | 22.5 | 35.4 | 0.00 | 0.00 | 0.00 | 36 | 1017.4 |
| 20260905185432 | 26 | 227 | 19.3 | 35.4 | 0.00 | 0.00 | 0.00 | 37 | 1017.5 |
| 20260905183941 | 26 | 276 | 20.9 | 33.8 | 0.00 | 0.00 | 0.00 | 37 | 1017.5 |
| 20260905183444 | 26 | 269 | 22.5 | 33.8 | 0.00 | 0.00 | 0.00 | 35 | 1017.6 |
| 20260905182947 | 26 | 258 | 20.9 | 33.8 | 0.00 | 0.00 | 0.00 | 36 | 1017.5 |
| 20260905182450 | 26 | 265 | 17.7 | 35.4 | 0.00 | 0.00 | 0.00 | 34 | 1017.5 |
| 20260905181953 | 25 | 206 | 9.7 | 35.4 | 0.00 | 0.00 | 0.00 | 35 | 1017.7 |
| 20260905181456 | 26 | 253 | 17.7 | 29.0 | 0.00 | 0.00 | 0.00 | 32 | 1017.6 |
| 20260905180959 | 25 | 247 | 14.5 | 37.0 | 0.00 | 0.00 | 0.00 | 34 | 1017.8 |
| 20260905180502 | 25 | 272 | 20.9 | 37.0 | 0.00 | 0.00 | 0.00 | 34 | 1017.7 |
| 20260905175011 | 25 | 264 | 22.5 | 38.6 | 0.00 | 0.00 | 0.00 | 38 | 1017.5 |
| 20260905174017 | 24 | 271 | 19.3 | 37.0 | 0.00 | 0.00 | 0.00 | 38 | 1017.4 |
| 20260905173520 | 24 | 271 | 19.3 | 37.0 | 0.00 | 0.00 | 0.00 | 42 | 1017.5 |
| 20260905172526 | 25 | 277 | 16.1 | 38.6 | 0.00 | 0.00 | 0.00 | 42 | 1017.4 |
| 20260905172029 | 25 | 238 | 14.5 | 35.4 | 0.00 | 0.00 | 0.00 | 41 | 1017.5 |
| 20260905171035 | 24 | 243 | 14.5 | 38.6 | 0.00 | 0.00 | 0.00 | 39 | 1017.5 |
| 20260905170041 | 24 | 276 | 20.9 | 33.8 | 0.00 | 0.00 | 0.00 | 35 | 1016.4 |
| 20260905165047 | 23 | 259 | 16.1 | 27.4 | 0.00 | 0.00 | 0.00 | 34 | 1016.7 |
| 20260905164053 | 23 | 270 | 20.9 | 30.6 | 0.00 | 0.00 | 0.00 | 32 | 1016.6 |
| 20260905163556 | 22 | 278 | 19.3 | 29.0 | 0.00 | 0.00 | 0.00 | 31 | 1016.6 |
| 20260905163059 | 23 | 271 | 16.1 | 33.8 | 0.00 | 0.00 | 0.00 | 28 | 1016.6 |
| 20260905161112 | 23 | 221 | 14.5 | 27.4 | 0.00 | 0.00 | 0.00 | 24 | 1016.7 |
| 20260905160614 | 23 | 279 | 11.3 | 25.7 | 0.00 | 0.00 | 0.00 | 22 | 1016.7 |
| 20260905160117 | 23 | 270 | 9.7 | 29.0 | 0.00 | 0.00 | 0.00 | 22 | 1016.8 |
| 20260905154626 | 23 | 213 | 14.5 | 25.7 | 0.00 | 0.00 | 0.00 | 20 | 1016.8 |
| 20260905154129 | 22 | 216 | 17.7 | 24.1 | 0.00 | 0.00 | 0.00 | 20 | 1016.7 |
| 20260905153135 | 22 | 226 | 11.3 | 27.4 | 0.00 | 0.00 | 0.00 | 20 | 1016.7 |
| 20260905152141 | 21 | 210 | 16.1 | 27.4 | 0.00 | 0.00 | 0.00 | 20 | 1016.6 |
| 20260905151644 | 21 | 220 | 14.5 | 27.4 | 0.00 | 0.00 | 0.00 | 20 | 1016.5 |
| 20260905151147 | 21 | 211 | 14.5 | 27.4 | 0.00 | 0.00 | 0.00 | 19 | 1016.5 |
| 20260905150153 | 21 | 201 | 9.7 | 20.9 | 0.00 | 0.00 | 0.00 | 18 | 1016.3 |
| 20260905145656 | 20 | 245 | 1.6 | 20.9 | 0.00 | 0.00 | 0.00 | 19 | 1016.2 |
| 20260905144702 | 20 | 218 | 8.0 | 16.1 | 0.00 | 0.00 | 0.00 | 18 | 1016.2 |
| 20260905143752 | 20 | 195 | 9.7 | 24.1 | 0.00 | 0.00 | 0.00 | 19 | 1016.1 |
| 20260905143708 | 20 | 195 | 9.7 | 24.1 | 0.00 | 0.00 | 0.00 | 19 | 1016.1 |
| 20260905142217 | 19 | 197 | 6.4 | 25.7 | 0.00 | 0.00 | 0.00 | 20 | 1016.0 |
| 20260905141223 | 18 | 318 | 4.8 | 16.1 | 0.00 | 0.00 | 0.00 | 22 | 1015.8 |
| 20260905140229 | 18 | 223 | 6.4 | 19.3 | 0.00 | 0.00 | 0.00 | 23 | 1015.8 |
| 20260905134738 | 17 | 267 | 6.4 | 16.1 | 0.00 | 0.00 | 0.00 | 24 | 1015.4 |
| 20260905134241 | 17 | 277 | 4.8 | 14.5 | 0.00 | 0.00 | 0.00 | 25 | 1015.4 |
| 20260905133744 | 17 | 218 | 4.8 | 19.3 | 0.00 | 0.00 | 0.00 | 25 | 1015.4 |
| 20260905133247 | 17 | 273 | 6.4 | 19.3 | 0.00 | 0.00 | 0.00 | 26 | 1015.1 |
| 20260905132750 | 17 | 252 | 6.4 | 17.7 | 0.00 | 0.00 | 0.00 | 26 | 1015.2 |
| 20260905132253 | 17 | 259 | 9.7 | 17.7 | 0.00 | 0.00 | 0.00 | 26 | 1015.2 |
| 20260905131756 | 17 | 271 | 6.4 | 16.1 | 0.00 | 0.00 | 0.00 | 26 | 1015.1 |
| 20260905131259 | 17 | 264 | 8.0 | 16.1 | 0.00 | 0.00 | 0.00 | 26 | 1015.0 |
| 20260905130802 | 17 | 262 | 6.4 | 19.3 | 0.00 | 0.00 | 0.00 | 26 | 1015.0 |
| 20260905130305 | 17 | 246 | 4.8 | 19.3 | 0.00 | 0.00 | 0.00 | 27 | 1015.0 |
| 20260905125808 | 17 | 237 | 6.4 | 16.1 | 0.00 | 0.00 | 0.00 | 27 | 1015.0 |
| 20260905125311 | 17 | 266 | 6.4 | 17.7 | 0.00 | 0.00 | 0.00 | 26 | 1014.9 |
| 20260905123323 | 17 | 235 | 8.0 | 19.3 | 0.00 | 0.00 | 0.00 | 25 | 1014.9 |
| 20260905122826 | 17 | 212 | 9.7 | 19.3 | 0.00 | 0.00 | 0.00 | 26 | 1014.8 |
| 20260905121832 | 17 | 246 | 8.0 | 17.7 | 0.00 | 0.00 | 0.00 | 25 | 1014.8 |
| 20260905121335 | 17 | 270 | 9.7 | 17.7 | 0.00 | 0.00 | 0.00 | 25 | 1014.9 |
| 20260905120838 | 17 | 270 | 9.7 | 16.1 | 0.00 | 0.00 | 0.00 | 25 | 1014.9 |
| 20260905120341 | 17 | 274 | 6.4 | 14.5 | 0.00 | 0.00 | 0.00 | 25 | 1014.9 |
| 20260905115845 | 17 | 261 | 6.4 | 22.5 | 0.00 | 0.00 | 0.00 | 1014.9 | |
| 20260905115347 | 17 | 260 | 9.7 | 22.5 | 0.00 | 0.00 | 0.00 | 24 | 1014.9 |
| 20260905113856 | 17 | 279 | 11.3 | 22.5 | 0.00 | 0.00 | 0.00 | 24 | 1014.9 |
| 20260905113359 | 17 | 279 | 11.3 | 22.5 | 0.00 | 0.00 | 0.00 | 24 | 1014.8 |
| 20260905112902 | 17 | 280 | 11.3 | 16.1 | 0.00 | 0.00 | 0.00 | 23 | 1014.8 |
| 20260905112405 | 17 | 281 | 9.7 | 16.1 | 0.00 | 0.00 | 0.00 | 23 | 1014.8 |
| 20260905111411 | 17 | 262 | 4.8 | 16.1 | 0.00 | 0.00 | 0.00 | 23 | 1014.8 |